Simultaneous Nadir Overpasses (SNOs) Predictions

Prediction of SNOs between AQUA and METOP-C Satellite Orbit:

Table of predicted SNOs for the next 14.0 days since TLE Epoch: 3/15/2025
Index Date (AQUA) Time (AQUA) Lat,Lon (AQUA) SZA (AQUA ) Date (METOP-C) Time (METOP-C) Lat,Lon (METOP-C) SZA (METOP-C ) Distance(km) Time Diff (sec)
1 03/16/2025 08:29:34 76.33, 54.03 77.85 03/16/2025 08:28:47 76.32, 54.17 77.84 3.82 47
2 03/16/2025 09:18:53 -76.37,-138.42 102.14 03/16/2025 09:19:28 -76.37,-138.34 102.14 1.92 35
3 03/18/2025 21:18:38 76.30,-138.05 76.80 03/18/2025 21:17:44 76.31,-138.13 76.82 2.61 54
4 03/18/2025 22:07:58 -76.38, 29.35 103.13 03/18/2025 22:08:25 -76.36, 29.37 103.15 2.32 27
5 03/21/2025 10:07:41 76.32, 29.67 75.83 03/21/2025 10:06:40 76.32, 29.69 75.83 0.56 61
6 03/21/2025 10:57:00 -76.35,-162.76 104.16 03/21/2025 10:57:21 -76.38,-162.80 104.13 2.67 21
7 03/23/2025 22:56:41 76.31,-162.49 74.82 03/23/2025 22:55:36 76.33,-162.54 74.84 2.00 65
8 03/23/2025 23:46:01 -76.39, 4.91 105.12 03/23/2025 23:46:17 -76.38, 4.98 105.13 2.19 16
9 03/26/2025 11:45:38 76.32, 5.30 73.83 03/26/2025 11:44:31 76.32, 5.19 73.83 3.20 67
10 03/26/2025 12:34:58 -76.40, 172.71 106.10 03/26/2025 12:35:12 -76.37, 172.71 106.13 3.32 14
11 03/29/2025 00:34:34 76.35, 173.05 72.87 03/29/2025 00:33:26 76.34, 173.03 72.86 1.28 68
12 03/29/2025 01:23:53 -76.38, -19.38 107.12 03/29/2025 01:24:07 -76.40, -19.44 107.10 2.38 14



Historial Predications of SNOs between AQUA and METOP-C
